Powrót do katalogu

CZ-6A DEB

AktywnyPO
NORAD 61306·DEBRIS·🇨🇳 China

Wystrzelony Aug 6, 2024 z Taiyuan Satellite Launch Center

Loading…

Następne Przeloty (najbliższe 24 godziny)

TLE

ŚwieżeSource: Space-Track

Epoka: Sep 14, 2026, 05:48 UTC

1 61306U 24140TT  26257.24171836  .00003596  00000-0  10083-2 0  9998
2 61306  88.1138 179.3324 0028623  43.0881 317.2556 14.45607430107563

Śledź CZ-6A DEB w czasie rzeczywistym z AllMySat

Download on the App Store